Location: Long Geng
(2.6167°N, 114.1333°E)
Time: 01:00:08
(UTC+00:00)

USA 234 - Pass Details

Date: 14 May 2021
Orbit: 1102 x 1105 km, 123.0° (Epoch: 18 April)

Event Time Altitude Azimuth Distance (km) Brightness Sun altitude
Rises 19:40:55 0° 40° (NE) 3,906 7.0 -36.1°
Reaches altitude 10° 19:43:24 10° 42° (NE) 2,949 6.2 -35.6°
Enters shadow 19:49:24 70° 92° (E) 1,162 3.3 -34.2°
